Location: Unnamed
(51.5169°N, 0.1311°W)
Time: 07:05:23
(UTC+01:00)

Vanguard 1 - Pass Details

Date: 13 August 2024
Orbit: 649 x 3825 km, 34.2° (Epoch: 16 September)

Event Time Altitude Azimuth Distance (km) Brightness Sun altitude
Rises 04:46:01 0° 269° (W) 6,037 13.6 -8.5°
Reaches altitude 10° 04:50:33 10° 258° (WSW) 5,475 13.3 -7.9°
Maximum altitude 05:03:22 26° 211° (SSW) 5,202 13.2 -6.3°
Drops below altitude 10° 05:19:33 10° 166° (SSE) 6,920 14.2 -4.1°
Sets 05:26:33 0° 156° (SSE) 7,904 14.6 -3.2°
